星链-11252 (STARLINK-11252)

导读 | 豆包AI

STARLINK-11252是美国太空探索技术公司(SpaceX)星链(Starlink)星座的一颗卫星,于2024年9月13日发射入轨。星链项目旨在构建全球卫星互联网,为全球偏远地区、海洋航空等场景提供高速网络接入服务,STARLINK-11252的入轨进一步扩充了星链星座的规模,推进了星座的全球覆盖布局。

基本信息
目录编号:
61051
目录名称:
STARLINK-11252
国际标识:
2024-164B
轨道中心:
EARTH
卫星名称:
星链-11252
卫星全名:
星链-11252 (STARLINK-11252)
卫星状态:
在轨 (已飞行619 天)
发射日期:
2024-09-13 UTC
国别 :
美国 (US)
星等 :
--
轨道信息
数据来源 国际轨道数据
星历时间: 2026-05-24T05:50:28+0800
1天前
查看轨道信息
半长轴: 6737.858km
偏心率: 0.0000716
轨道倾角: 53.157°
近地点辐角 83.686°
升交点赤经 300.417°
平近点角 276.424°
近地点: 359.238km
远地点: 360.204km
周期: 91.737分钟
每日圈数: 15.697123
详细信息
固有亮度:
5
最大亮度:
2.5
卫星平台:
Starlink V1.0
覆盖范围:
全球
运营商:
太空探索技术公司
运营商所在国:
美国
制造商(研发单位):
太空探索技术公司
制造商所在国:
美国
使用方式:
暂无
卫星简介
Starlink 计划是 SpaceX 推出的全球卫星互联网项目,通过发射低轨道卫星,为全球尤其是偏远地区提供高速、低延迟的互联网服务。自 2019 年起,Starlink 已部署数千颗卫星,旨在缩小全球数字鸿沟,推动互联网普及。该项目还为军事、航空等行业提供通信支持,带来广泛经济效益。
2D轨道图
3D轨道图
轨道高度分析图
轨道倾角分析图
轨道综合分析图
查看轨道综合分析图